Voltar ao catálogo

STARLINK-36178

AtivoComunicaçõesVLEO
NORAD 67025·PAYLOAD·🇺🇸 United States

Lançado Dec 10, 2025 de Vandenberg Space Force Base

Loading…

Próximas Passagens (próximas 24 horas)

TLE

AtualizadoSource: CelesTrak SupGP

Época: Sep 15, 2026, 03:47 UTC

1 67025C 25293Y   26258.15812500  .00045356  00000+0  38002-2 0  2581
2 67025  70.0014 336.6880 0003470 268.1501 307.3193 14.98314905    16

Acompanhe STARLINK-36178 em tempo real com AllMySat

Download on the App Store